Torna al catalogo

DELTA 1 DEB

AttivoLEO
NORAD 10710·DEBRIS·🇺🇸 United States

Lanciato Jul 29, 1976 da Vandenberg Space Force Base

Loading…

Prossimi Passaggi (prossime 24 ore)

TLE

AggiornatoSource: Space-Track

Epoca: Sep 13, 2026, 08:33 UTC

1 10710U 76077AF  26256.35685764  .00000225  00000-0  29793-2 0  9992
2 10710 101.8005  41.8069 0266736 258.5432 126.2016 11.99468648163355

Traccia DELTA 1 DEB in tempo reale con AllMySat

Download on the App Store